Temp
52 52 52 52 52 52 49 45 36 49 53 35 34 36 44 47 48 50 48 46 42 38 39 37 38 41 44 53 52 43 48 40 38 46 56 60 57 52 53 40 38 44 40 39
51 51 51 52 51 51 47 40 40 48 48 32 34 43 42 46 45 46 45 43 47 49 43 37 44 47 53 54 52 46 42 37 34 42 52 54 50 53 53 48 46 37 32 38
51 51 51 51 51 51 48 40 33 39 40 41 42 39 40 38 47 46 48 45 48 45 41 45 40 44 51 53 50 48 43 35 34 32 39 42 39 46 47 42 33 37 40 45
51 51 51 51 51 51 45 39 35 40 32 34 35 42 40 39 38 46 48 43 43 43 37 41 39 44 47 51 50 49 44 32 38 40 43 44 43 39 42 39 41 33 39 43
51 51 51 51 51 50 42 34 35 39 43 40 36 34 34 39 43 41 41 41 46 45 40 42 40 45 45 44 48 46 48 34 39 34 43 43 39 41 43 43 44 43 45 45
50 51 50 50 50 50 44 44 42 37 38 40 37 35 37 36 40 37 45 42 39 40 45 48 48 50 49 48 45 43 42 38 34 30 42 40 30 35 40 45 47 46 39 49
50 50 50 50 50 50 50 48 45 37 32 34 37 38 38 37 37 34 40 42 38 46 49 47 45 46 48 48 47 48 40 37 35 31 36 22 43 54 53 49 50 51 49 52
50 50 50 50 50 50 48 49 46 39 33 38 34 35 36 39 42 38 41 45 50 50 44 33 32 36 37 42 47 47 47 40 31 28 32 39 44 50 49 44 46 55 52 54
49 49 49 49 50 50 48 48 50 44 36 37 42 37 39 37 37 38 43 49 51 47 41 33 26 29 36 36 40 47 46 41 31 31 26 25 43 50 55 54 38 56 56 54
48 48 49 49 49 50 48 47 50 44 34 43 43 38 38 42 37 36 35 34 39 44 35 30 31 32 42 33 35 36 35 32 29 31 27 32 50 51 54 36 39 52 53 55
48 48 45 48 48 49 48 46 49 45 37 43 43 44 40 41 41 35 38 35 37 33 31 32 31 33 39 37 41 39 37 32 32 33 28 28 48 49 41 44 48 49 53 54
48 48 47 45 46 48 48 44 49 49 41 41 46 46 48 47 47 42 41 39 40 39 31 31 34 30 28 34 30 44 32 41 38 38 38 46 49 46 51 50 46 49 49 55
48 47 47 46 46 46 47 46 46 44 38 40 41 39 48 51 50 51 37 41 43 41 45 37 36 29 33 30 35 39 44 48 40 39 44 47 49 46 44 47 49 51 52 53
47 47 47 47 47 46 46 44 47 46 43 31 38 51 45 52 51 49 48 45 46 46 43 35 33 32 40 36 35 39 45 46 42 42 47 50 50 48 46 46 52 53 56 54
48 47 47 47 46 46 45 46 48 49 41 32 35 45 48 49 49 47 48 44 41 39 35 34 33 38 34 37 42 39 48 44 40 38 49 48 49 52 53 49 50 52 53 52
47 47 47 46 44 44 42 34 45 48 46 35 30 46 44 48 49 46 45 44 41 39 37 35 40 44 39 36 36 44 51 53 53 48 53 51 51 53 55 53 54 55 52 54
46 44 43 43 45 45 40 38 43 47 46 32 31 35 45 47 47 45 43 43 37 36 35 36 39 41 40 37 34 44 51 53 53 54 51 47 52 50 56 55 56 54 55 55
46 46 46 47 46 44 42 46 45 45 38 35 29 32 37 47 38 35 43 35 35 36 39 41 39 41 40 33 42 47 51 51 50 51 53 51 53 53 53 55 55 53 53 54
46 47 46 44 42 37 43 45 44 45 37 29 30 29 28 42 37 35 34 35 30 39 33 38 40 36 32 39 43 48 49 47 49 52 52 52 50 51 52 53 52 50 51 53
46 45 40 30 40 44 45 38 32 31 34 33 31 39 30 37 34 33 33 35 33 30 36 43 34 37 45 48 49 49 49 50 50 46 47 49 48 49 49 49 50 49 48 48
43 34 35 42 44 43 37 30 27 29 26 34 35 36 32 39 29 28 34 32 32 28 31 35 32 34 41 49 50 50 48 49 50 49 49 48 47 45 44 44 43 42 43 43
42 43 43 42 36 33 26 25 30 28 29 37 33 35 37 36 35 32 32 28 33 26 37 32 30 37 44 46 47 47 47 46 45 45 44 43 42 42 40 38 37 36 35 33
45 39 32 33 32 24 22 21 26 28 33 35 35 32 38 36 35 32 31 27 27 36 29 29 36 43 46 46 47 44 44 43 43 42 42 41 39 38 35 34 33 32 32 31
36 30 25 25 24 27 29 31 33 37 35 36 37 35 35 38 33 32 28 30 33 27 24 29 41 43 44 44 43 41 36 34 36 37 36 34 34 33 33 32 32 31 30 31
32 31 23 26 32 32 34 35 34 37 38 37 34 35 38 35 30 33 31 25 23 28 30 37 42 43 42 40 40 39 37 33 33 35 35 33 33 33 32 33 32 32 30 29
33 32 28 34 30 31 32 32 33 40 38 36 36 33 31 31 33 28 27 27 26 33 39 43 43 39 37 35 36 35 35 35 35 36 35 35 33 32 34 33 32 31 30 29
33 31 32 31 33 32 33 34 38 41 37 31 36 29 26 35 30 28 35 30 37 41 43 43 42 39 38 34 33 33 33 34 35 36 36 36 36 34 34 32 34 32 31 29
MSLP
1015.14 1015.53 1015.84 1016.02 1015.91 1016.04 1016.30 1016.05 1016.32 1016.12 1016.46 1017.18 1016.41 1015.04 1014.03 1013.52 1013.07 1013.27 1013.16 1013.15 1013.03 1013.02 1013.10 1012.60 1012.14 1011.32 1011.48 1011.84 1011.91 1011.56 1011.94 1012.03 1009.90 1007.86 1007.14 1006.45 1006.53 1005.95 1005.92 1006.14 1005.83 1005.65 1005.03 1003.53
1015.04 1015.33 1015.53 1015.69 1015.84 1015.76 1016.07 1015.66 1015.90 1016.35 1016.08 1015.53 1015.18 1014.59 1014.31 1013.92 1013.30 1013.16 1013.14 1013.17 1012.69 1012.68 1012.90 1012.48 1011.63 1011.17 1011.22 1011.83 1011.59 1011.97 1012.76 1012.33 1010.61 1008.37 1007.40 1006.77 1006.90 1006.83 1006.85 1007.32 1006.99 1006.27 1005.99 1003.70
1014.57 1014.82 1015.31 1015.40 1015.50 1015.63 1015.83 1015.83 1015.63 1015.83 1015.69 1015.10 1014.42 1014.08 1013.70 1013.62 1013.21 1013.24 1013.16 1013.06 1013.11 1012.87 1012.75 1012.76 1011.95 1011.46 1011.21 1011.67 1012.01 1012.88 1013.55 1012.71 1012.00 1010.68 1008.92 1009.01 1008.65 1007.70 1008.23 1008.62 1008.03 1005.97 1005.38 1004.24
1014.26 1014.56 1014.67 1015.12 1015.26 1015.32 1015.70 1015.17 1014.54 1014.51 1014.77 1014.63 1014.43 1013.80 1013.61 1013.12 1012.81 1013.12 1013.03 1012.95 1012.81 1012.36 1012.35 1012.17 1011.63 1011.68 1011.25 1011.30 1011.72 1012.17 1012.81 1012.18 1012.03 1011.05 1010.15 1009.45 1009.15 1008.65 1008.22 1008.36 1007.74 1006.82 1005.51 1004.56
1013.66 1014.02 1014.43 1014.57 1014.78 1015.01 1015.48 1014.82 1014.62 1014.64 1013.83 1014.05 1014.04 1014.18 1013.25 1012.96 1012.31 1012.89 1012.44 1012.51 1012.05 1012.07 1012.02 1011.75 1011.20 1011.15 1011.11 1010.60 1011.13 1011.52 1011.67 1011.55 1011.38 1010.72 1009.72 1009.34 1008.75 1007.89 1007.35 1007.19 1006.41 1005.74 1004.97 1003.26
1013.06 1013.49 1013.57 1014.09 1014.38 1014.55 1014.30 1014.62 1014.78 1014.52 1013.61 1013.34 1013.68 1013.45 1013.55 1013.22 1013.26 1013.30 1012.48 1012.71 1012.75 1012.22 1011.69 1011.85 1011.93 1011.81 1011.52 1011.09 1010.97 1011.11 1011.31 1011.42 1011.25 1010.03 1009.04 1008.40 1007.65 1006.20 1006.00 1005.08 1004.41 1004.34 1003.69 1001.97
1012.29 1012.67 1013.12 1013.45 1013.86 1014.18 1013.92 1013.80 1014.01 1014.17 1013.74 1013.68 1013.14 1013.37 1013.52 1013.30 1013.28 1013.35 1013.23 1013.17 1012.80 1012.45 1012.82 1013.00 1012.52 1012.28 1011.22 1010.58 1010.18 1010.68 1010.73 1011.05 1011.08 1009.85 1008.80 1006.90 1005.00 1004.15 1003.68 1003.26 1002.73 1002.47 1002.63 1001.20
1011.48 1011.95 1012.41 1012.92 1013.35 1013.85 1014.01 1013.93 1013.76 1013.87 1013.32 1013.12 1013.46 1013.70 1013.63 1013.46 1013.01 1013.13 1012.73 1012.44 1012.21 1012.73 1013.04 1013.32 1012.01 1011.04 1010.39 1009.04 1008.56 1009.02 1009.48 1009.90 1009.87 1009.31 1007.59 1005.63 1004.28 1003.34 1002.72 1002.83 1001.60 1001.16 1000.95 1000.60
1010.78 1011.33 1011.85 1012.31 1012.70 1013.26 1013.81 1013.80 1014.01 1014.00 1013.64 1012.71 1012.94 1013.08 1012.95 1012.89 1012.80 1012.47 1011.85 1011.86 1012.20 1012.74 1012.58 1012.82 1011.69 1009.99 1008.84 1007.75 1007.42 1008.03 1008.36 1008.88 1009.44 1008.24 1007.04 1004.84 1002.91 1002.86 1002.72 1002.35 1001.20 1000.95 1000.49 1000.27
1010.12 1010.64 1011.22 1011.76 1012.30 1012.80 1013.42 1013.53 1013.83 1014.02 1013.81 1013.12 1013.24 1012.84 1012.70 1012.92 1013.00 1012.87 1013.11 1013.63 1012.81 1012.30 1012.02 1012.02 1010.94 1009.56 1008.56 1007.51 1006.80 1007.22 1007.83 1008.31 1008.01 1007.36 1006.56 1005.27 1003.52 1003.24 1003.12 1002.83 1002.63 1001.80 1001.28 1000.69
1009.08 1009.93 1010.78 1010.93 1011.81 1012.36 1013.01 1013.18 1013.59 1013.57 1013.50 1013.12 1013.39 1013.20 1012.99 1012.79 1012.82 1012.91 1013.34 1013.70 1013.38 1012.93 1011.36 1011.18 1010.67 1009.63 1008.22 1007.47 1006.60 1006.45 1006.35 1006.63 1006.22 1006.16 1005.70 1004.70 1004.54 1003.86 1003.89 1004.13 1003.40 1003.12 1002.50 1001.90
1008.34 1009.26 1010.12 1010.82 1011.73 1012.22 1012.72 1012.87 1013.42 1013.82 1013.83 1013.30 1013.50 1013.37 1013.36 1013.26 1013.10 1013.17 1013.19 1012.88 1012.75 1012.88 1013.03 1013.00 1012.17 1011.36 1010.64 1008.13 1006.67 1006.30 1006.42 1005.62 1005.14 1005.19 1004.59 1004.79 1005.02 1005.15 1005.06 1004.91 1004.73 1003.91 1003.67 1002.62
1007.67 1008.59 1009.50 1010.53 1011.43 1012.20 1012.51 1012.62 1013.27 1013.85 1013.60 1013.21 1013.02 1012.66 1012.71 1013.00 1012.90 1013.03 1013.14 1012.77 1013.10 1012.86 1012.76 1012.81 1012.15 1011.48 1010.89 1008.11 1006.87 1006.06 1005.52 1005.34 1005.24 1005.18 1004.46 1004.42 1004.59 1005.10 1005.64 1005.61 1004.90 1004.23 1003.76 1003.24
1007.06 1008.04 1008.95 1009.89 1010.76 1011.59 1012.30 1012.52 1013.03 1013.13 1013.03 1012.64 1011.56 1011.66 1011.97 1011.93 1012.18 1012.32 1012.55 1012.75 1012.76 1012.87 1012.86 1012.81 1011.95 1011.14 1010.32 1008.82 1007.78 1006.32 1005.27 1005.17 1004.61 1004.17 1004.03 1004.04 1004.33 1004.80 1004.96 1005.14 1004.48 1003.93 1003.46 1003.42
1006.65 1007.58 1008.48 1009.39 1010.31 1011.26 1012.03 1012.55 1012.81 1012.81 1012.81 1012.12 1011.67 1011.49 1011.20 1011.37 1011.24 1011.45 1011.74 1012.14 1012.36 1012.50 1012.45 1012.05 1011.34 1010.61 1010.56 1008.81 1007.26 1006.01 1005.06 1004.48 1004.16 1003.81 1003.68 1003.84 1003.98 1004.12 1004.19 1004.15 1004.06 1003.65 1003.54 1003.45
1006.47 1007.42 1008.40 1009.36 1010.42 1011.42 1012.16 1012.61 1012.63 1012.64 1013.06 1012.98 1011.61 1010.29 1010.00 1009.82 1009.99 1010.33 1010.63 1011.01 1011.62 1011.92 1011.56 1011.22 1010.35 1010.00 1009.70 1007.56 1005.87 1005.14 1004.51 1004.05 1003.95 1003.72 1003.72 1003.99 1004.17 1004.03 1003.95 1003.88 1003.68 1003.59 1003.55 1003.50
1006.70 1008.06 1008.87 1009.76 1010.42 1011.13 1011.39 1011.75 1011.87 1012.14 1012.99 1013.21 1011.77 1009.67 1008.72 1008.79 1008.96 1009.40 1009.87 1010.46 1010.95 1011.07 1010.86 1010.20 1009.55 1008.97 1009.07 1007.08 1004.92 1004.47 1004.10 1003.79 1003.66 1003.64 1004.07 1003.86 1003.64 1003.40 1003.30 1003.45 1003.38 1003.50 1003.53 1003.50
1007.04 1008.01 1009.06 1009.76 1010.67 1011.41 1011.61 1011.78 1011.92 1012.40 1013.02 1013.00 1011.59 1009.65 1008.81 1008.22 1008.39 1008.72 1009.09 1009.71 1010.21 1009.97 1008.98 1008.68 1008.41 1008.43 1008.08 1005.68 1003.95 1003.69 1003.49 1003.54 1003.44 1003.48 1003.58 1003.61 1003.56 1003.48 1003.57 1003.42 1003.37 1003.38 1003.37 1003.34
1007.62 1008.44 1009.39 1010.54 1010.96 1011.11 1011.01 1011.91 1012.43 1012.74 1013.15 1012.00 1010.80 1009.26 1008.29 1008.40 1008.32 1008.57 1008.74 1008.52 1008.51 1008.36 1007.98 1007.53 1007.58 1006.63 1005.25 1003.81 1003.41 1002.92 1003.10 1003.38 1003.39 1003.37 1003.38 1003.26 1003.34 1003.23 1003.22 1003.30 1003.24 1003.33 1003.28 1003.39
1008.29 1009.10 1009.55 1010.57 1010.70 1011.15 1011.44 1012.32 1012.60 1012.67 1012.34 1011.92 1010.02 1008.95 1008.28 1008.30 1008.35 1008.15 1008.08 1007.08 1006.51 1006.52 1006.19 1006.11 1005.72 1003.97 1003.41 1002.86 1002.81 1002.86 1003.11 1003.27 1003.49 1003.51 1003.08 1003.15 1003.31 1003.38 1003.35 1003.60 1003.76 1003.80 1003.96 1004.07
1008.52 1009.24 1009.67 1010.51 1010.91 1010.83 1011.13 1011.40 1011.62 1011.38 1010.79 1009.54 1008.01 1007.57 1007.05 1007.47 1007.89 1008.05 1007.59 1005.83 1005.64 1005.18 1005.22 1004.58 1003.98 1002.76 1002.40 1002.27 1002.21 1002.76 1003.11 1003.42 1003.53 1003.69 1003.70 1003.96 1004.29 1004.34 1004.27 1004.31 1004.63 1004.73 1004.68 1004.58
1008.60 1008.85 1009.95 1010.50 1010.65 1010.66 1010.90 1010.41 1009.71 1009.31 1007.86 1006.74 1006.53 1006.12 1006.35 1006.65 1007.00 1006.57 1006.31 1005.73 1005.37 1004.66 1004.73 1004.04 1002.86 1001.77 1001.81 1001.92 1002.30 1002.90 1003.54 1003.93 1004.16 1004.35 1004.50 1004.90 1005.14 1005.20 1005.32 1005.16 1005.31 1005.51 1005.41 1005.29
1008.87 1009.16 1009.85 1009.77 1009.95 1009.77 1009.32 1008.23 1007.52 1006.99 1006.55 1006.15 1005.83 1005.45 1005.21 1005.98 1006.07 1005.75 1005.62 1005.32 1005.07 1004.81 1004.20 1003.20 1001.94 1001.66 1001.85 1002.23 1002.72 1003.64 1004.30 1004.63 1004.75 1004.93 1005.18 1005.44 1005.60 1005.90 1006.01 1005.70 1005.65 1005.71 1005.38 1005.28
1008.68 1009.06 1009.21 1009.26 1008.43 1007.95 1007.18 1006.61 1006.25 1006.17 1006.03 1005.72 1005.27 1004.76 1004.74 1004.83 1005.11 1005.20 1005.01 1005.25 1004.79 1004.06 1003.53 1002.31 1001.49 1001.79 1002.27 1002.90 1003.65 1004.27 1004.83 1005.10 1005.30 1005.48 1005.64 1005.77 1006.02 1006.00 1005.97 1005.87 1005.90 1005.68 1005.29 1005.12
1008.83 1008.97 1008.50 1008.01 1007.50 1007.26 1006.98 1006.69 1006.34 1005.80 1005.58 1005.43 1005.22 1004.78 1004.49 1004.42 1004.68 1004.66 1004.69 1004.66 1003.97 1003.40 1002.51 1002.18 1002.16 1002.53 1003.10 1003.58 1003.97 1004.35 1004.74 1005.22 1005.40 1005.51 1005.64 1005.65 1005.74 1005.76 1005.73 1005.73 1005.69 1005.70 1005.50 1005.26
1008.87 1008.39 1007.97 1007.43 1007.35 1006.58 1006.46 1006.13 1005.66 1005.44 1005.28 1005.37 1004.90 1004.29 1004.12 1003.97 1003.96 1003.97 1003.75 1003.57 1003.09 1002.75 1002.61 1002.57 1002.96 1003.32 1003.67 1004.15 1004.47 1004.84 1005.27 1005.39 1005.30 1005.31 1005.34 1005.36 1005.45 1005.44 1005.40 1005.50 1005.49 1005.62 1005.58 1005.35
1008.01 1007.29 1007.50 1007.47 1006.98 1006.40 1006.08 1006.04 1005.42 1005.44 1005.07 1004.63 1004.28 1003.95 1003.88 1004.09 1003.67 1003.52 1003.39 1003.12 1002.78 1002.71 1002.75 1002.99 1003.18 1003.54 1003.85 1004.37 1004.69 1004.87 1005.15 1005.12 1005.11 1005.04 1005.00 1004.98 1005.14 1005.31 1005.26 1005.21 1005.23 1005.53 1005.55 1005.44
Wind_Speed
8 9 9 7 5 4 6 3 6 7 10 4 3 9 10 8 10 2 7 11 8 4 3 4 4 6 2 8 7 14 8 6 12 16 13 15 15 16 17 13 13 12 14 17
9 10 10 8 7 5 2 3 2 3 4 8 8 11 13 11 11 14 7 6 7 5 10 8 14 16 1 8 7 3 3 5 7 11 12 5 13 16 13 12 11 18 14 10
12 11 11 10 10 8 4 3 4 4 4 3 17 19 20 14 10 17 13 9 12 14 15 15 10 17 10 6 5 5 1 2 7 14 15 11 11 11 10 11 6 12 18 21
14 13 12 12 10 8 4 4 3 5 5 7 5 17 9 22 18 14 13 10 19 17 15 16 17 18 16 14 13 13 6 7 15 20 21 21 21 19 23 23 20 12 14 17
16 15 14 13 12 8 4 3 4 2 10 5 7 8 8 23 17 13 13 16 14 14 18 18 16 11 11 11 7 10 12 12 14 21 20 20 24 22 25 26 27 25 24 28
18 17 14 13 13 11 6 4 3 1 6 11 11 6 12 7 11 5 11 7 9 15 16 12 11 12 14 15 14 14 14 10 10 17 16 17 14 25 25 29 24 21 22 32
21 19 16 14 14 15 4 3 4 4 8 5 9 7 7 11 8 1 5 7 10 1 10 8 8 17 17 18 20 17 19 17 12 14 16 19 18 19 17 21 24 22 23 29
21 20 18 17 16 17 6 3 3 3 7 8 6 9 11 9 5 11 12 15 14 1 1 2 6 8 8 16 24 22 21 18 12 14 15 18 24 23 20 14 21 21 23 24
21 21 20 19 18 18 8 5 3 3 3 7 10 5 3 3 3 6 7 6 7 9 6 4 6 7 7 6 5 6 14 16 10 10 14 16 17 5 8 10 18 18 14 15
24 22 23 21 19 18 9 4 9 4 4 4 5 6 5 5 3 4 3 5 6 12 8 10 12 15 12 11 14 9 6 6 14 13 10 5 14 6 6 13 4 13 9 7
22 20 16 21 21 18 11 6 10 6 3 4 3 5 8 6 4 5 2 5 2 4 3 4 2 5 7 12 13 11 11 7 7 9 7 11 12 4 8 9 8 12 11 5
23 22 20 12 17 17 16 5 7 7 4 3 0 5 9 13 11 5 4 6 5 3 2 3 4 7 4 12 3 5 6 11 6 5 3 5 5 6 12 9 11 17 15 8
23 23 23 24 23 18 14 5 7 6 3 6 10 11 15 14 13 13 10 7 7 5 4 5 4 7 5 6 7 6 5 7 6 5 2 6 7 2 6 11 14 14 16 13
24 23 24 24 26 23 17 7 6 6 3 4 4 5 12 11 14 18 16 14 11 10 6 5 5 4 3 8 4 10 5 3 8 11 11 11 5 8 7 11 18 17 12 10
23 23 23 23 22 19 9 5 8 8 4 3 3 6 14 12 11 14 17 16 15 9 10 8 9 3 3 6 6 8 11 12 8 9 8 6 9 5 9 7 9 13 11 4
19 16 18 23 20 16 6 3 7 8 6 3 4 2 10 11 15 19 17 12 10 9 6 7 10 18 7 8 10 11 13 13 12 11 11 7 9 9 9 10 11 8 7 8
24 21 21 23 21 11 4 1 3 11 8 2 5 5 5 8 15 10 8 11 5 5 7 10 12 6 7 10 16 13 17 12 13 10 8 12 14 11 9 11 9 4 6 5
21 22 22 18 19 9 4 4 8 8 3 3 5 5 5 8 5 5 7 6 7 7 6 5 11 8 8 9 10 15 11 6 7 9 8 10 10 9 11 11 10 12 11 11
23 20 20 11 3 3 2 12 9 3 3 4 3 5 7 2 3 2 3 5 7 5 8 10 8 9 11 12 15 8 5 3 7 9 9 10 11 11 11 11 10 12 11 10
25 14 3 3 3 8 12 6 3 3 4 4 7 5 7 2 3 3 4 5 5 8 9 8 7 12 14 12 8 6 8 9 9 10 8 5 7 8 7 7 7 8 10 10
5 3 3 3 10 5 2 3 4 4 5 6 6 11 11 5 7 5 4 2 3 5 5 8 6 7 11 15 12 5 3 4 3 5 6 6 9 9 7 6 6 8 9 9
5 7 6 4 3 2 4 5 5 7 6 6 6 6 8 5 5 7 3 1 2 4 6 4 4 4 5 8 8 6 5 3 2 1 3 4 5 6 7 5 6 8 8 9
4 3 4 4 4 7 7 8 5 4 3 4 5 6 5 5 4 2 3 5 2 6 3 3 5 3 6 6 6 6 4 3 2 2 3 4 5 6 7 8 6 7 7 8
1 3 4 4 6 5 4 5 3 1 4 4 7 3 3 2 4 0 4 2 4 4 4 5 1 5 5 5 4 4 3 2 2 3 3 3 6 6 5 5 5 7 8 9
1 3 4 4 3 4 7 5 4 5 4 5 3 3 2 2 2 2 3 4 3 3 2 1 1 5 4 3 3 4 3 4 5 5 5 5 4 4 6 4 5 6 7 7
3 4 4 5 4 5 3 3 4 1 2 1 3 2 2 2 0 2 1 1 1 1 1 1 1 2 2 3 3 2 4 5 5 5 5 5 4 5 5 4 5 6 6 5
5 4 3 5 5 5 2 2 1 1 3 1 2 2 1 1 1 2 3 3 1 0 2 2 4 4 5 5 5 5 7 6 5 5 5 6 5 5 6 6 3 4 3 2
Wind_Direction
223 217 208 200 212 257 206 202 211 157 152 163 210 226 212 248 224 225 242 232 243 254 263 273 279 252 302 282 280 300 297 299 284 273 292 286 275 278 260 239 253 244 257 262
211 206 206 206 224 217 188 206 173 178 213 209 220 231 250 243 228 230 219 228 237 255 258 258 245 250 358 316 283 0 83 209 280 275 249 234 247 258 271 298 288 256 251 255
215 210 215 210 214 223 213 175 201 151 215 227 231 225 236 226 221 243 237 253 257 253 258 255 265 268 272 242 270 140 108 253 277 282 302 339 279 271 285 269 237 259 253 264
222 216 211 215 213 212 203 195 225 189 200 232 229 231 206 228 229 221 210 228 234 239 244 249 244 258 263 252 251 266 240 252 261 261 270 279 268 268 270 268 270 257 275 269
217 213 215 208 201 194 227 174 188 236 239 212 205 209 229 238 237 221 216 228 238 230 243 250 258 252 263 258 231 245 236 249 259 260 257 258 265 263 256 257 258 257 258 266
215 218 211 203 201 186 214 163 182 359 210 222 235 208 225 224 236 257 265 239 281 262 259 279 285 288 281 267 261 253 252 249 253 265 265 272 259 247 249 256 253 249 246 252
211 210 207 202 200 199 236 212 208 210 249 242 224 240 262 229 241 231 262 262 240 192 43 318 252 259 254 252 251 241 244 237 245 263 277 259 268 263 271 268 260 248 246 260
211 208 204 201 201 196 209 188 213 217 251 245 234 248 239 250 237 229 235 249 243 133 69 258 239 230 254 243 242 237 229 238 246 244 252 270 276 270 261 243 262 253 250 256
212 203 205 201 200 190 199 192 201 226 263 240 238 235 234 276 279 276 247 243 223 225 236 211 244 247 251 237 195 210 227 222 224 220 236 249 251 37 335 273 263 276 255 245
211 210 208 201 198 191 186 183 182 192 227 237 224 213 236 218 226 268 53 355 319 236 206 220 241 251 244 246 246 216 202 217 232 238 251 270 282 334 253 224 316 344 321 276
204 195 208 207 197 185 184 184 191 198 213 242 231 245 242 237 230 254 185 311 233 295 255 239 336 260 241 236 235 258 253 240 222 228 242 257 15 264 270 355 327 336 326 310
197 193 190 172 192 198 187 189 189 202 226 285 231 281 277 260 256 271 212 269 309 191 254 241 291 293 276 299 257 185 231 227 284 264 331 353 354 343 331 334 309 305 312 304
194 189 181 180 181 195 196 179 161 187 234 267 245 248 239 238 234 233 244 233 243 246 248 277 269 265 292 280 220 265 250 242 253 294 244 276 296 45 315 281 274 290 297 300
188 184 183 186 186 187 184 178 173 205 182 264 272 235 239 238 230 233 231 248 258 265 271 254 249 271 255 284 298 282 300 215 247 260 277 282 276 243 218 269 281 286 295 301
184 187 187 185 173 178 163 181 187 211 222 290 298 289 264 236 228 224 224 229 238 242 244 239 255 265 247 222 261 261 251 251 258 269 290 303 312 304 261 260 286 287 272 269
176 170 172 158 150 161 157 169 205 205 207 265 266 263 260 246 229 234 231 221 221 218 219 238 242 248 279 270 266 269 267 255 261 271 290 304 284 287 268 268 281 280 243 233
146 147 158 160 164 169 172 122 82 181 167 215 260 250 201 255 231 232 220 218 195 208 207 237 250 214 206 258 258 267 267 266 277 275 273 270 273 272 269 293 293 286 287 262
142 143 146 156 151 120 172 126 106 144 157 207 246 254 259 193 206 214 189 188 183 210 214 205 218 227 227 255 261 249 258 287 282 264 259 261 281 284 275 276 272 278 280 282
141 136 125 123 151 156 182 143 137 171 253 295 234 251 278 59 226 246 195 187 187 167 205 211 201 202 219 233 237 235 231 257 298 292 279 268 261 269 274 270 267 274 277 279
124 129 117 146 178 106 126 149 157 211 193 220 250 228 223 191 344 249 231 204 184 185 199 174 223 235 233 239 229 243 269 279 264 262 271 273 265 264 265 275 279 279 286 289
123 120 89 89 154 166 160 183 212 183 219 219 229 222 231 197 215 248 249 224 154 211 149 203 198 231 236 235 236 220 199 243 259 275 290 290 286 294 297 295 300 295 288 282
111 99 97 124 169 162 193 208 203 207 232 191 225 226 206 189 192 222 169 280 227 162 157 198 224 232 163 146 158 157 173 193 207 330 292 290 284 290 290 296 290 285 291 292
114 98 128 193 162 215 209 206 206 214 210 214 214 212 190 177 213 194 199 205 157 152 193 210 237 129 149 138 143 149 161 178 190 224 245 267 294 295 285 289 284 284 293 290
86 176 178 215 196 227 219 253 262 192 231 248 240 224 218 150 187 255 209 107 179 175 192 231 254 175 155 134 139 165 188 195 240 237 260 274 286 281 277 271 293 309 308 314
278 204 238 243 283 260 267 281 268 236 248 234 210 209 236 169 183 208 140 158 174 227 240 319 118 126 146 176 200 202 203 191 215 222 230 234 241 272 292 284 299 306 302 301
252 230 236 229 251 262 225 239 263 263 231 179 253 162 224 197 258 185 209 148 252 39 223 342 100 192 187 189 210 211 244 236 233 238 245 254 253 267 285 292 302 298 299 303
238 225 232 268 282 285 305 265 333 192 195 356 243 186 142 124 199 206 183 219 160 315 336 299 267 226 196 196 219 218 218 224 247 254 260 259 260 271 265 271 269 281 298 338